When you browse on this site, cookies collect data to enhance your experience and personalize the content and advertising you see.
Visit our Privacy Policy to learn more. By continuing to use the site, you agree to this use of cookies and data.
  • In Czech Republic
  • List of Countries
  • For 7 days
  • Water Temperature
  • Satellite Maps
  • Weather Map
  • Weather Widgets
  • user-avatar
    Login

    Hourly Weather Darwin

    Today, 15 December, Saturday

    Time Temperature Precipitation Wind Pressure Humidity
    00:00 +32°C° 0 mm 5 mps 754 mmHg 84%
    01:00 +32°C° 0 mm 5 mps 753 mmHg 84%
    02:00 +32°C° 0 mm 5 mps 753 mmHg 84%
    03:00 +32°C° 0 mm 5 mps 753 mmHg 84%
    04:00 +30°C° 0.1 mm 5 mps 753 mmHg 85%
    05:00 +30°C° 0.1 mm 5 mps 754 mmHg 85%
    06:00 +30°C° 0.1 mm 5 mps 754 mmHg 86%
    07:00 +33°C° 0.1 mm 5 mps 754 mmHg 80%
    08:00 +34°C° 0.1 mm 5 mps 754 mmHg 74%
    09:00 +35°C° 0.1 mm 5 mps 755 mmHg 68%
    10:00 +36°C° 1.1 mm 5 mps 755 mmHg 65%
    11:00 +36°C° 1.1 mm 5 mps 754 mmHg 63%
    12:00 +37°C° 1.1 mm 5 mps 754 mmHg 61%
    13:00 +37°C° 0.1 mm 5 mps 754 mmHg 60%
    14:00 +37°C° 0.1 mm 5 mps 753 mmHg 59%
    15:00 +39°C° 0.1 mm 6 mps 753 mmHg 58%
    16:00 +38°C° 0 mm 6 mps 753 mmHg 62%
    17:00 +35°C° 0 mm 5 mps 753 mmHg 67%
    18:00 +34°C° 0 mm 5 mps 753 mmHg 71%
    19:00 +34°C° 0 mm 5 mps 753 mmHg 75%
    20:00 +33°C° 0 mm 5 mps 754 mmHg 79%
    21:00 +32°C° 0 mm 5 mps 754 mmHg 82%
    22:00 +32°C° 0 mm 4 mps 754 mmHg 83%
    23:00 +32°C° 0 mm 4 mps 754 mmHg 84%

    Tomorrow, 16 December, Sunday

    Time Temperature Precipitation Wind Pressure Humidity
    00:00 +32°C° 0 mm 4 mps 754 mmHg 85%
    01:00 +30°C° 0 mm 4 mps 754 mmHg 85%
    02:00 +30°C° 0 mm 5 mps 754 mmHg 85%
    03:00 +30°C° 0 mm 5 mps 753 mmHg 85%
    04:00 +30°C° 0 mm 5 mps 754 mmHg 85%
    05:00 +30°C° 0 mm 5 mps 754 mmHg 84%
    06:00 +30°C° 0 mm 5 mps 755 mmHg 83%
    07:00 +33°C° 0 mm 5 mps 755 mmHg 78%
    08:00 +34°C° 0 mm 5 mps 755 mmHg 73%
    09:00 +35°C° 0 mm 5 mps 756 mmHg 68%
    10:00 +36°C° 0 mm 5 mps 756 mmHg 64%
    11:00 +37°C° 0 mm 5 mps 755 mmHg 60%
    12:00 +39°C° 0 mm 5 mps 755 mmHg 56%
    13:00 +39°C° 0.3 mm 5 mps 754 mmHg 56%
    14:00 +39°C° 0.3 mm 5 mps 754 mmHg 56%
    15:00 +39°C° 0.3 mm 5 mps 753 mmHg 56%
    16:00 +37°C° 0.1 mm 5 mps 753 mmHg 60%
    17:00 +36°C° 0.1 mm 5 mps 753 mmHg 65%
    18:00 +34°C° 0.1 mm 5 mps 753 mmHg 69%
    19:00 +34°C° 0 mm 5 mps 754 mmHg 73%
    20:00 +33°C° 0 mm 5 mps 754 mmHg 76%
    21:00 +32°C° 0 mm 5 mps 754 mmHg 80%
    22:00 +32°C° 0 mm 4 mps 754 mmHg 81%
    23:00 +32°C° 0 mm 4 mps 754 mmHg 83%

    Day after tomorrow, 17 December, Monday

    Time Temperature Precipitation Wind Pressure Humidity
    00:00 +32°C° 0 mm 4 mps 755 mmHg 84%
    01:00 +32°C° 0.1 mm 4 mps 754 mmHg 84%
    02:00 +32°C° 0.1 mm 4 mps 754 mmHg 84%
    03:00 +32°C° 0.1 mm 4 mps 754 mmHg 84%
    04:00 +30°C° 0.1 mm 4 mps 754 mmHg 85%
    05:00 +30°C° 0.1 mm 4 mps 754 mmHg 85%
    06:00 +30°C° 0.1 mm 3 mps 754 mmHg 85%
    07:00 +32°C° 0 mm 4 mps 755 mmHg 80%
    08:00 +33°C° 0 mm 4 mps 755 mmHg 75%
    09:00 +34°C° 0 mm 4 mps 756 mmHg 70%
    10:00 +36°C° 0 mm 4 mps 756 mmHg 65%
    11:00 +37°C° 0 mm 4 mps 755 mmHg 59%
    12:00 +38°C° 0 mm 4 mps 755 mmHg 54%
    13:00 +38°C° 0 mm 4 mps 754 mmHg 54%
    14:00 +39°C° 0 mm 5 mps 754 mmHg 55%
    15:00 +39°C° 0 mm 5 mps 753 mmHg 55%
    16:00 +36°C° 0 mm 5 mps 753 mmHg 61%
    17:00 +35°C° 0 mm 5 mps 753 mmHg 67%
    18:00 +34°C° 0 mm 5 mps 753 mmHg 73%
    19:00 +33°C° 0 mm 5 mps 754 mmHg 76%
    20:00 +33°C° 0 mm 4 mps 754 mmHg 79%
    21:00 +32°C° 0 mm 4 mps 755 mmHg 82%
    22:00 +32°C° 1.1 mm 4 mps 755 mmHg 84%
    23:00 +30°C° 1.1 mm 3 mps 755 mmHg 86%

    18 December, Tuesday

    Time Temperature Precipitation Wind Pressure Humidity
    00:00 +30°C° 1.1 mm 3 mps 755 mmHg 89%
    01:00 +30°C° 0.2 mm 3 mps 754 mmHg 89%
    02:00 +30°C° 0.2 mm 4 mps 754 mmHg 88%
    03:00 +30°C° 0.2 mm 4 mps 754 mmHg 88%
    04:00 +30°C° 0 mm 4 mps 754 mmHg 89%
    05:00 +30°C° 0 mm 4 mps 754 mmHg 90%
    06:00 +30°C° 0 mm 4 mps 754 mmHg 91%
    07:00 +32°C° 0 mm 4 mps 755 mmHg 85%
    08:00 +33°C° 0 mm 4 mps 755 mmHg 79%
    09:00 +34°C° 0 mm 4 mps 756 mmHg 73%
    10:00 +36°C° 0 mm 5 mps 756 mmHg 67%
    11:00 +37°C° 0 mm 5 mps 755 mmHg 61%
    12:00 +39°C° 0 mm 5 mps 755 mmHg 55%
    13:00 +39°C° 0 mm 5 mps 755 mmHg 54%
    14:00 +39°C° 0 mm 5 mps 754 mmHg 53%
    15:00 +39°C° 0 mm 6 mps 754 mmHg 52%
    16:00 +36°C° 0.4 mm 5 mps 754 mmHg 59%
    17:00 +35°C° 0.4 mm 5 mps 754 mmHg 67%
    18:00 +33°C° 0.4 mm 4 mps 754 mmHg 74%
    19:00 +33°C° 0.4 mm 4 mps 755 mmHg 77%
    20:00 +32°C° 0.4 mm 4 mps 755 mmHg 81%
    21:00 +30°C° 0.4 mm 4 mps 756 mmHg 85%
    22:00 +30°C° 0 mm 4 mps 756 mmHg 86%
    23:00 +30°C° 0 mm 3 mps 756 mmHg 87%

    19 December, Wednesday

    Time Temperature Precipitation Wind Pressure Humidity
    00:00 +30°C° 0 mm 3 mps 756 mmHg 88%
    01:00 +30°C° 0.4 mm 3 mps 756 mmHg 88%
    02:00 +30°C° 0.4 mm 4 mps 755 mmHg 88%
    03:00 +30°C° 0.4 mm 4 mps 755 mmHg 88%
    04:00 +29°C° 0 mm 3 mps 755 mmHg 88%
    05:00 +29°C° 0 mm 2 mps 755 mmHg 87%
    06:00 +29°C° 0 mm 2 mps 755 mmHg 86%
    07:00 +30°C° 0 mm 2 mps 756 mmHg 79%
    08:00 +32°C° 0 mm 2 mps 756 mmHg 72%
    09:00 +35°C° 0 mm 2 mps 756 mmHg 64%
    10:00 +36°C° 0 mm 3 mps 756 mmHg 60%
    11:00 +37°C° 0 mm 4 mps 755 mmHg 56%
    12:00 +38°C° 0 mm 4 mps 755 mmHg 52%
    13:00 +38°C° 0.3 mm 4 mps 755 mmHg 51%
    14:00 +39°C° 0.3 mm 5 mps 754 mmHg 51%
    15:00 +39°C° 0.3 mm 5 mps 754 mmHg 51%
    16:00 +37°C° 0 mm 5 mps 754 mmHg 56%
    17:00 +36°C° 0 mm 5 mps 754 mmHg 61%
    18:00 +34°C° 0 mm 5 mps 755 mmHg 66%
    19:00 +34°C° 0.1 mm 5 mps 755 mmHg 71%
    20:00 +33°C° 0.1 mm 4 mps 756 mmHg 75%
    21:00 +32°C° 0.1 mm 4 mps 756 mmHg 80%
    22:00 +32°C° 0.1 mm 4 mps 756 mmHg 81%
    23:00 +32°C° 0.1 mm 4 mps 756 mmHg 82%

    20 December, Thursday

    Time Temperature Precipitation Wind Pressure Humidity
    00:00 +32°C° 0.1 mm 4 mps 756 mmHg 82%
    01:00 +32°C° 0 mm 4 mps 755 mmHg 83%
    02:00 +32°C° 0 mm 4 mps 755 mmHg 83%
    03:00 +32°C° 0 mm 4 mps 755 mmHg 84%
    04:00 +30°C° 0 mm 4 mps 755 mmHg 84%
    05:00 +30°C° 0 mm 4 mps 755 mmHg 85%
    06:00 +30°C° 0 mm 4 mps 756 mmHg 86%
    07:00 +32°C° 0 mm 4 mps 756 mmHg 80%
    08:00 +33°C° 0 mm 5 mps 756 mmHg 75%
    09:00 +34°C° 0 mm 5 mps 756 mmHg 70%
    10:00 +35°C° 0.1 mm 5 mps 756 mmHg 67%
    11:00 +36°C° 0.1 mm 5 mps 755 mmHg 64%
    12:00 +36°C° 0.1 mm 5 mps 755 mmHg 61%
    13:00 +36°C° 0.8 mm 5 mps 754 mmHg 61%
    14:00 +36°C° 0.8 mm 5 mps 754 mmHg 61%
    15:00 +36°C° 0.8 mm 5 mps 754 mmHg 61%
    16:00 +35°C° 0.2 mm 4 mps 754 mmHg 64%
    17:00 +34°C° 0.2 mm 4 mps 754 mmHg 67%
    18:00 +33°C° 0.2 mm 4 mps 754 mmHg 71%
    19:00 +33°C° 1.7 mm 4 mps 754 mmHg 76%
    20:00 +32°C° 1.7 mm 4 mps 755 mmHg 81%
    21:00 +30°C° 1.7 mm 4 mps 755 mmHg 86%
    22:00 +29°C° 3.7 mm 4 mps 755 mmHg 87%
    23:00 +28°C° 3.7 mm 3 mps 755 mmHg 87%
    Show more